METEOR 2-5 DEB

Satellite information

Favourite Embed

Satellite Type and Status

DEBRISIN ORBIT

Key statistics

Satellite METEOR 2-5 DEB at a glance.

Uptime

16631

Days in orbit

Revolutions

≈ 15.1

Per day

Orbit

LEO

Low Earth Orbit

Inclination

81.2

Latest

Satellite identification and parameters

Extended collection of information and parameters for METEOR 2-5 DEB.

Object identification

Identified? True

Debris? True

Object name: METEOR 2-5 DEB

International designator: 1979-095V

Object number (NORAD): 35254

Object ID (CCSDS): 35254

Country: COMMONWEALTH OF INDEPENDENT STATES (CIS)

Current information (Y/N): Y

RCS size: SMALL

Orbital parameters

Period: 95.511 minutes

Inclination: 81.1637 deg

SMA: 6921.43 km

Apoapsis: 554.914 km

Periapsis: 531.675 km

RAAN: 236.4439 deg

Eccentricy: 0.0016788

Argument of periapsis: 238.9438 deg

Mean anomaly: 121.0139 deg

Mean motion: 15.07679561 rev/day

Mean motion (dot): 0.00083329 rev/day2

B* drag term: 0.0053902 1/REarth

Two-line elements (TLE)

Creation date: May 11, 2025, 10:21 p.m.

Reference frame: TEME

Reference center: EARTH

Epoch: May 11, 2025, 1:11 p.m. UTC

TLE line 0: 0 METEOR 2-5 DEB

TLE line 1: 1 35254U 79095V 25131.54955414 .00083329 00000-0 53902-2 0 9994

TLE line 2: 2 35254 81.1637 236.4439 0016788 238.9438 121.0139 15.07679561616305

Live tracking on map

Real-time ground track for satellite METEOR 2-5 DEB.

In-orbit conjunctions

A list of the most updated potential collisions computed for object METEOR 2-5 DEB.

Target Orbit TCA Probability of collision Miss distance Type
COSMOS 2251 DEB LEO 2024-11-14 12:09:05 0.0002620626 113.0 (m) DEBRIS
CZ-2D R/B SSO 2024-09-24 16:59:27 0.007175193 102.0 (m) ROCKET BODY
CZ-6A DEB SSO 2024-09-22 07:57:25 0.0001005456 152.0 (m) DEBRIS

Associated space launch

Second generation soviet meteorological satellite

METEOR 2-5 DEB was lifted into orbit during the mission ‘Vostok 8A92M | Meteor-2 5’, on board a Vostok 8A92M space rocket.

The launch took place on Oct. 31, 1979, 9:25 a.m. from 43/4 (43R).

For more information about the launch, click the button.

Launch to space Vostok 8A92M | Meteor-2 5
Vostok 8A92M | Meteor-2 5

Agency: N/A

Status: Launch Successful

Launch date: Oct. 31, 1979, 9:25 a.m. UTC

Rocket: Vostok 8A92M

Launch pad: 43/4 (43R)

Location: Plesetsk Cosmodrome, Russian Federation

...

Latest news about this satellite

There are no fresh news available about this satellite. Check back as we update our databases every day.


Newsletter sign-up

Weekly statistics, charts and insights to help you stay on top of the space industry.